Location: Mentone
(34.5413°N, 85.5351°W)
Time: 14:11:42
(UTC-05:00)

Vanguard 2 Rocket - Visible Passes

Search period start: 28 August 2015 00:00
Search period end: 07 September 2015 00:00
Orbit: 554 x 3331 km, 32.9° (Epoch: 26 August)

Date Brightness Start Highest point End Pass type
(mag) Time Alt. Az. Time Alt. Az. Time Alt. Az.
28 Aug 10.3 03:30:18 21° S 03:40:38 34° SE 03:57:05 10° E visible
28 Aug 9.9 05:38:22 10° SW 05:58:20 64° SSE 06:14:30 10° E visible
29 Aug 10.4 02:34:45 22° SSE 02:39:43 25° SE 02:54:37 10° E visible
29 Aug 9.9 04:40:37 16° SW 04:56:52 55° SSE 05:14:17 10° E visible
30 Aug 10.6 01:39:10 16° SE 01:39:10 16° SE 01:49:53 10° E visible
30 Aug 10.0 03:45:00 27° SSW 03:55:32 45° SSE 04:13:26 10° E visible
31 Aug 10.0 02:49:23 31° SSE 02:54:31 35° SE 03:11:45 10° E visible
31 Aug 9.8 04:55:14 17° SW 05:12:02 66° SSE 05:29:58 10° E visible
01 Sep 10.3 01:53:42 25° SE 01:53:52 25° SE 02:08:51 10° E visible
01 Sep 9.8 03:59:33 30° SSW 04:10:30 57° SSE 04:29:18 10° E visible
02 Sep 10.7 00:58:00 15° ESE 00:58:00 15° ESE 01:03:44 10° E visible
02 Sep 9.7 03:03:50 39° S 03:09:17 46° SE 03:27:59 10° E visible
02 Sep 9.7 05:09:41 16° WSW 05:27:20 76° SSE 05:45:34 10° E visible
03 Sep 9.9 02:08:05 35° SE 02:08:30 35° SE 02:25:51 10° E visible
03 Sep 9.7 04:13:56 31° SW 04:25:36 68° SSE 04:44:56 10° E visible
04 Sep 10.4 01:12:19 23° ESE 01:12:19 23° ESE 01:22:35 10° E visible
04 Sep 9.5 03:18:09 45° SSW 03:24:09 58° SSE 03:43:47 10° ENE visible
04 Sep 9.7 05:23:59 13° WSW 05:42:48 82° S 06:01:09 10° E visible
05 Sep 10.8 00:16:30 11° ESE 00:16:30 11° ESE 00:17:05 10° E visible
05 Sep 9.6 02:22:20 46° SSE 02:23:09 47° SE 02:42:01 10° E visible
05 Sep 9.6 04:28:10 29° WSW 04:40:52 77° SSE 05:00:31 10° E visible
06 Sep 10.0 01:26:31 33° ESE 01:26:31 33° ESE 01:39:30 10° E visible
06 Sep 9.4 03:32:21 47° SW 03:39:12 69° SSE 03:59:24 10° E visible
06 Sep 9.7 05:38:25 10° W 05:58:20 85° S 06:16:44 10° E visible
